Pardubice, Czech Republic

1:33 PM CET on December 03, 2016 (GMT +0100)
Pardubice

Weather History for LKPD - March, 2012

Change the Weather History Date:

Tuesday, March 20, 2012

  Actual Average Record
Temperature  
Mean Temperature 40 °F -  
Max Temperature 55 °F - - ()
Min Temperature 26 °F - - ()
Degree Days  
Heating Degree Days 24    
Moisture  
Dew Point 25 °F    
Average Humidity 56    
Maximum Humidity 86    
Minimum Humidity 25    
Precipitation  
Precipitation 0.00 in - - ()
Sea Level Pressure  
Sea Level Pressure 30.53 in    
Wind  
Wind Speed 3 mph ()    
Max Wind Speed 10 mph    
Max Gust Speed -    
T = Trace of Precipitation, MM = Missing Value Source: Averaged Metar Reports

Daily Weather History Graph

Daily Weather History Graph

Search for Another Location

Airport or City:

Trip Planner

Search our weather history database for the weather conditions in past years. The results will help you decide how hot, cold, wet, or windy it might be!

Date:

Astronomy

Mar. 20, 2012 Rise Set
Actual Time 5:59 AM CET 6:10 PM CET
Civil Twilight 5:27 AM CET 6:42 PM CET
Nautical Twilight 4:49 AM CET 7:20 PM CET
Astronomical Twilight 4:09 AM CET 8:00 PM CET
Moon 4:42 AM CET (3/20) 4:14 PM CET (3/20)
Length of Visible Light 13h 15m
Length of Day
12h 11m
Waning Crescent, 5% of the Moon is Illuminated
Mar 20
Waning Crescent
Mar 22
New
Mar 30
First Quarter
Apr 6
Full
Apr 13
Last Quarter

Hourly Weather History & Observations

Time (CET) Temp. Windchill Dew Point Humidity Pressure Visibility Wind Dir Wind Speed Gust Speed Precip Events Conditions
12:00 AM 32.0 °F 28.7 °F 24.8 °F 75% 30.51 in - SSW 3.5 mph - N/A   Clear
1:00 AM 30.2 °F - 23.0 °F 75% 30.51 in - SSW 1.2 mph - N/A   Clear
2:11 AM 32.0 °F - 24.8 °F 75% 30.51 in - Calm Calm - N/A   Clear
3:00 AM 30.2 °F - 23.0 °F 75% 30.51 in - Calm Calm - N/A   Clear
4:00 AM 28.4 °F - 23.0 °F 80% 30.51 in - SSW 2.3 mph - N/A   Clear
5:00 AM 26.6 °F - 23.0 °F 86% 30.51 in - ESE 2.3 mph - N/A   Clear
6:00 AM 26.6 °F - 23.0 °F 86% 30.54 in - ESE 2.3 mph - N/A   Clear
7:00 AM 30.2 °F - 24.8 °F 80% 30.54 in - Calm Calm - N/A   Clear
8:00 AM 37.4 °F - 30.2 °F 75% 30.57 in - Calm Calm - N/A   Clear
9:00 AM 42.8 °F - 28.4 °F 57% 30.57 in - Variable 2.3 mph - N/A   Clear
10:00 AM 44.6 °F 40.7 °F 24.8 °F 46% 30.57 in - West 6.9 mph - N/A   Clear
11:00 AM 48.2 °F - 24.8 °F 40% 30.57 in - West 6.9 mph - N/A   Clear
12:00 PM 51.8 °F - 26.6 °F 38% 30.57 in - West 8.1 mph - N/A   Clear
1:00 PM 51.8 °F - 23.0 °F 33% 30.54 in - West 6.9 mph - N/A   Clear
2:00 PM 55.4 °F - 21.2 °F 26% 30.51 in - West 10.4 mph - N/A   Clear
3:00 PM 55.4 °F - 23.0 °F 29% 30.51 in - WSW 6.9 mph - N/A   Clear
4:00 PM 55.4 °F - 21.2 °F 26% 30.48 in - West 9.2 mph - N/A   Clear
5:00 PM 55.4 °F - 19.4 °F 25% 30.48 in - WNW 8.1 mph - N/A   Clear
6:00 PM 53.6 °F - 21.2 °F 28% 30.51 in - NW 3.5 mph - N/A   Clear
7:00 PM 48.2 °F - 23.0 °F 37% 30.51 in - Variable 2.3 mph - N/A   Clear
8:00 PM 44.6 °F - 30.2 °F 57% 30.51 in - South 1.2 mph - N/A   Clear
9:00 PM 41.0 °F - 28.4 °F 61% 30.54 in - SSW 1.2 mph - N/A   Clear
10:00 PM 37.4 °F - 28.4 °F 70% 30.54 in - Calm Calm - N/A   Clear
11:00 PM 37.4 °F - 28.4 °F 70% 30.54 in - Calm Calm - N/A   Clear